Regional Weather Roundup
Issued by NWS

Home | Current Version | Previous Version | Text Only | Print | Product List | Glossary Off
Versions: 1 2 3 4 5 6 7 8 9 10 11 12 13 14 15 16 17 18 19 20 21 22 23 24 25 26 27 28 29 30 31 32 33 34 35 36 37 38 39 40 41 42 43 44 45 46 47 48 49 50

499
ASUS44 KMEG 211400
RWRTN
TENNESSEE HOURLY STATE WEATHER ROUNDUP
NATIONAL WEATHER SERVICE MEMPHIS TN
800 AM CST WED FEB 21 2018

TNZ002-004-019-021-049-052-054-088>092-211500-
WEST TENNESSEE

CITY           SKY/WX    TMP DP  RH WIND       PRES   REMARKS
MEMPHIS INTL   LGT RAIN  51  50  96 N14       30.33R FOG
NWS MEMPHIS      N/A     50 N/A N/A MISG        N/A
JACKSON        HVY RAIN  52  52 100 N10       30.33R FOG
DYERSBURG      RAIN      42  41  96 N10       30.37R
$$

TNZ008-025-027-028-033-062-065-066-211500-
NORTH MIDDLE TENNESSEE

CITY           SKY/WX    TMP DP  RH WIND       PRES   REMARKS
NASHVILLE      PTSUNNY   73  63  70 SW15      30.28R
CLARKSVILLE    LGT RAIN  54  51  90 N13       30.32R
SMYRNA         PTSUNNY   71  64  78 SW9       30.29R
CROSSVILLE     FAIR      64  61  90 S8G18     30.36R
$$

TNZ061-075-076-078-094-096-097-211500-
SOUTH MIDDLE TENNESSEE

CITY           SKY/WX    TMP DP  RH WIND       PRES   REMARKS
WINCHESTER     CLOUDY    70  64  83 S8        30.33R
$$

TNZ017-018-042-046-047-211500-
NORTHEAST TENNESSEE

CITY           SKY/WX    TMP DP  RH WIND       PRES   REMARKS
TRI CITIES     FAIR      68  61  78 CALM      30.39R
$$

TNZ012-013-036-069-073-074-211500-
CENTRAL EAST TENNESSEE

CITY           SKY/WX    TMP DP  RH WIND       PRES   REMARKS
KNOXVILLE      PTSUNNY   67  64  90 W8        30.35R
OAK RIDGE      LGT RAIN  67  65  93 SW5       30.36R FOG
$$

TNZ083-085-099-211500-
SOUTHEAST TENNESSEE

CITY           SKY/WX    TMP DP  RH WIND       PRES   REMARKS
CHATTANOOGA    PTSUNNY   69  63  81 S7        30.36R
$$

SKY/WX REPORTED AS FAIR MEANS FEW OR NO CLOUDS BELOW
12 THOUSAND FEET.





USA.gov is the U.S. government's official web portal to all federal, state and local government web resources and services.